Triuchirapalli, India

8:56 AM IST on September 19, 2019 (GMT +0530)
Tiruchirappalli

Weather History for VOTR - July, 2019

Change the Weather History Date:

Tuesday, July 30, 2019

  Actual Average Record
Temperature  
Mean Temperature 91 °F -  
Max Temperature 100 °F 92 °F 102 °F (2015)
Min Temperature 82 °F 79 °F 77 °F (2000)
Cooling Degree Days 26    
Growing Degree Days 41 (Base 50)    
Moisture  
Dew Point 67 °F    
Average Humidity 46    
Maximum Humidity 62    
Minimum Humidity 24    
Precipitation  
Precipitation 0.00 in - - ()
Sea Level Pressure  
Sea Level Pressure 29.74 in    
Wind  
Wind Speed 9 mph ()    
Max Wind Speed 17 mph    
Max Gust Speed 25 mph    
Visibility 4.5 miles    
Events      
Averages and records for this station are not official NWS values.
T = Trace of Precipitation, MM = Missing Value Source: Averaged Metar Reports

Daily Weather History Graph

Daily Weather History Graph

Search for Another Location

Airport or City:

Astronomy

Jul. 30, 2019 Rise Set
Actual Time 6:03 AM IST 6:39 PM IST
Civil Twilight 5:40 AM IST 7:02 PM IST
Nautical Twilight 5:14 AM IST 7:28 PM IST
Astronomical Twilight 4:48 AM IST 7:54 PM IST
Moon 3:56 AM IST (7/30) 5:03 PM IST (7/30)
Length of Visible Light 13h 21m
Length of Day
12h 36m
Waning Crescent, 5% of the Moon is Illuminated
Jul 30
Waning Crescent
Aug 1
New
Aug 7
First Quarter
Aug 15
Full
Aug 23
Last Quarter

Hourly Weather History & Observations

Time (IST) Temp. Heat Index Dew Point Humidity Pressure Visibility Wind Dir Wind Speed Gust Speed Precip Events Conditions
12:00 AM 87.8 °F 90.4 °F 66.2 °F 49% 29.77 in 3.7 mi West 9.2 mph - N/A   Partly Cloudy
12:30 AM 87.8 °F 90.4 °F 66.2 °F 49% 29.77 in 3.7 mi WNW 9.2 mph - N/A   Partly Cloudy
1:00 AM 87.8 °F 91.4 °F 68.0 °F 52% 29.74 in 3.7 mi WNW 9.2 mph - N/A   Partly Cloudy
1:30 AM 86.0 °F 89.4 °F 68.0 °F 55% 29.74 in 3.7 mi WNW 9.2 mph - N/A   Partly Cloudy
2:00 AM 86.0 °F 89.4 °F 68.0 °F 55% 29.74 in 3.7 mi WNW 9.2 mph - N/A   Partly Cloudy
2:30 AM 84 °F - 68 °F 49% 29.72 in 2 mi WNW 9.2 mph - -   Scattered Clouds
2:30 AM 84.2 °F 87.3 °F 68.0 °F 58% 29.71 in 3.7 mi WNW 9.2 mph - N/A   Partly Cloudy
3:00 AM 84.2 °F 87.3 °F 68.0 °F 58% 29.71 in 3.7 mi WNW 9.2 mph - N/A   Partly Cloudy
3:30 AM 84.2 °F 87.3 °F 68.0 °F 58% 29.71 in 3.7 mi WNW 9.2 mph - N/A   Partly Cloudy
4:00 AM 82.4 °F 85.4 °F 68.0 °F 62% 29.71 in 3.7 mi WNW 9.2 mph - N/A   Partly Cloudy
4:30 AM 82.4 °F 85.4 °F 68.0 °F 62% 29.74 in 3.7 mi WNW 9.2 mph - N/A   Partly Cloudy
5:00 AM 82.4 °F 85.4 °F 68.0 °F 62% 29.74 in 3.7 mi WNW 9.2 mph - N/A   Partly Cloudy
5:30 AM 83 °F - 69 °F 55% 29.73 in 2 mi WNW 6.9 mph - -   Scattered Clouds
5:30 AM 82.4 °F 85.4 °F 68.0 °F 62% 29.74 in 3.7 mi WNW 6.9 mph - N/A   Scattered Clouds
6:00 AM 82.4 °F 85.4 °F 68.0 °F 62% 29.74 in 3.7 mi WNW 6.9 mph - N/A   Scattered Clouds
6:30 AM 82.4 °F 85.4 °F 68.0 °F 62% 29.77 in 3.7 mi West 8.1 mph - N/A   Scattered Clouds
7:00 AM 82.4 °F 85.4 °F 68.0 °F 62% 29.77 in 3.7 mi WNW 8.1 mph - N/A   Scattered Clouds
7:30 AM 84.2 °F 87.3 °F 68.0 °F 58% 29.77 in 3.7 mi West 9.2 mph - N/A   Scattered Clouds
8:00 AM 86.0 °F 89.4 °F 68.0 °F 55% 29.80 in 3.7 mi West 9.2 mph - N/A   Scattered Clouds
8:30 AM 88 °F - 68 °F 41% 29.78 in 2 mi West 13.8 mph - -   Scattered Clouds
8:30 AM 87.8 °F 91.4 °F 68.0 °F 52% 29.80 in 5.0 mi West 13.8 mph - N/A   Partly Cloudy
9:00 AM 89.6 °F 93.4 °F 68.0 °F 49% 29.80 in 5.0 mi West 13.8 mph - N/A   Partly Cloudy
10:00 AM 91.4 °F 94.0 °F 66.2 °F 43% 29.77 in 6.2 mi West 9.2 mph 20.7 mph N/A   Partly Cloudy
10:30 AM 91.4 °F 94.0 °F 66.2 °F 43% 29.77 in 6.2 mi West 9.2 mph 20.7 mph N/A   Partly Cloudy
11:30 AM 95 °F - 68 °F 31% 29.78 in 6 mi WNW 17.3 mph - -   Scattered Clouds
11:30 AM 95.0 °F 99.5 °F 68.0 °F 41% 29.77 in 6.2 mi WNW 11.5 mph 23.0 mph N/A   Partly Cloudy
12:00 PM 95.0 °F 99.5 °F 68.0 °F 41% 29.74 in 6.2 mi West 11.5 mph 23.0 mph N/A   Partly Cloudy
12:30 PM 96.8 °F 100.7 °F 66.2 °F 37% 29.74 in 6.2 mi West 11.5 mph 23.0 mph N/A   Partly Cloudy
1:00 PM 98.6 °F 102.8 °F 66.2 °F 35% 29.71 in 6.2 mi WNW 11.5 mph 23.0 mph N/A   Partly Cloudy
1:30 PM 98.6 °F 102.8 °F 66.2 °F 35% 29.71 in 6.2 mi WNW 11.5 mph 23.0 mph N/A   Partly Cloudy
2:00 PM 98.6 °F 102.8 °F 66.2 °F 35% 29.71 in 6.2 mi West 13.8 mph 25.3 mph N/A   Partly Cloudy
2:30 PM 100 °F - 67 °F 25% 29.68 in 6 mi WNW 13.8 mph - -   Scattered Clouds
2:30 PM 100.4 °F 104.9 °F 66.2 °F 33% 29.68 in 6.2 mi WNW 13.8 mph 25.3 mph N/A   Partly Cloudy
3:00 PM 100.4 °F 104.9 °F 66.2 °F 33% 29.68 in 6.2 mi West 11.5 mph 23.0 mph N/A   Partly Cloudy
3:30 PM 100.4 °F 104.9 °F 66.2 °F 33% 29.68 in 6.2 mi WNW 13.8 mph 25.3 mph N/A   Partly Cloudy
4:00 PM 100.4 °F 104.9 °F 66.2 °F 33% 29.68 in 6.2 mi WNW 9.2 mph 20.7 mph N/A   Partly Cloudy
4:30 PM 100.4 °F 104.9 °F 66.2 °F 33% 29.68 in 6.2 mi NW 11.5 mph 23.0 mph N/A   Partly Cloudy
5:00 PM 100.4 °F 104.9 °F 66.2 °F 33% 29.68 in 6.2 mi NW 11.5 mph 23.0 mph N/A   Partly Cloudy
5:30 PM 98 °F - 65 °F 24% 29.68 in 6 mi WNW 10.4 mph - -   Scattered Clouds
6:00 PM 96.8 °F 100.7 °F 66.2 °F 37% 29.71 in 6.2 mi West 10.4 mph - N/A   Partly Cloudy
6:30 PM 96.8 °F 100.7 °F 66.2 °F 37% 29.71 in 6.2 mi WNW 10.4 mph - N/A   Partly Cloudy
7:30 PM 93.2 °F 97.7 °F 68.0 °F 44% 29.74 in 4.3 mi WNW 13.8 mph - N/A   Partly Cloudy
8:00 PM 93.2 °F 97.7 °F 68.0 °F 44% 29.74 in 3.7 mi WNW 13.8 mph - N/A   Partly Cloudy
8:30 PM 92 °F - 67 °F 35% 29.75 in 2 mi WNW 12.7 mph - -   Haze
8:30 PM 91.4 °F 95.4 °F 68.0 °F 46% 29.77 in 3.7 mi WNW 12.7 mph - N/A   Partly Cloudy
9:00 PM 91.4 °F 95.4 °F 68.0 °F 46% 29.77 in 3.7 mi West 11.5 mph - N/A   Partly Cloudy
10:00 PM 89.6 °F 93.4 °F 68.0 °F 49% 29.80 in 3.7 mi WSW 9.2 mph - N/A   Scattered Clouds
11:00 PM 87.8 °F 92.6 °F 69.8 °F 55% 29.80 in 3.7 mi West 9.2 mph - N/A   Scattered Clouds
11:30 PM 88 °F - 69 °F 44% 29.81 in 2 mi West 9.2 mph - -   Haze
11:30 PM 87.8 °F 92.6 °F 69.8 °F 55% 29.80 in 3.7 mi West 9.2 mph - N/A   Partly Cloudy